Location: *
(45.8589°N, 4.7139°E)
Time: 09:36:19
(UTC+00:00)

Cosmos 468 Rocket - Pass Details

Date: 09 April 2020
Orbit: 745 x 779 km, 74.0° (Epoch: 04 June)

Event Time Altitude Azimuth Distance (km) Brightness Sun altitude
Rises 20:33:55 0° 338° (NNW) 3,216 8.2 -21.7°
Reaches altitude 10° 20:36:18 10° 338° (NNW) 2,282 7.3 -22.0°
Maximum altitude 20:41:29 86° 252° (WSW) 755 3.9 -22.7°
Enters shadow 20:42:40 54° 165° (SSE) 902 4.0 -22.8°
